Lafayette, IN

12:07 AM EDT on March 27, 2017 (GMT -0400)
Purdue Univ

Weather History for KLAF - February, 2014

Change the Weather History Date:

Friday, February 21, 2014

  Actual Average Record
Temperature  
Mean Temperature 36 °F 32 °F  
Max Temperature 40 °F 41 °F 66 °F (1997)
Min Temperature 32 °F 24 °F 1 °F (1968)
Degree Days  
Heating Degree Days 29 33  
Month to date heating degree days 980 745  
Since 1 July heating degree days 4648 4113  
Cooling Degree Days 0 0  
Month to date cooling degree days 0 0  
Year to date cooling degree days 0 0  
Moisture  
Dew Point 24 °F    
Average Humidity 63    
Maximum Humidity 82    
Minimum Humidity 44    
Precipitation  
Precipitation T in 0.07 in 0.83 in (2011)
Month to date precipitation 2.32 1.24  
Year to date precipitation 3.23 3.10  
Sea Level Pressure  
Sea Level Pressure 29.76 in    
Wind  
Wind Speed 14 mph (WSW)    
Max Wind Speed 30 mph    
Max Gust Speed 43 mph    
Visibility 10 miles    
Events      
T = Trace of Precipitation, MM = Missing Value Source: NWS Daily Summary

Daily Weather History Graph

Daily Weather History Graph

Search for Another Location

Airport or City:

Trip Planner

Search our weather history database for the weather conditions in past years. The results will help you decide how hot, cold, wet, or windy it might be!

Date:

Astronomy

Feb. 21, 2014 Rise Set
Actual Time 7:33 AM EST 6:30 PM EST
Civil Twilight 7:05 AM EST 6:57 PM EST
Nautical Twilight 6:33 AM EST 7:29 PM EST
Astronomical Twilight 6:02 AM EST 8:01 PM EST
Moon 12:24 AM EST (2/21) 10:55 AM EST (2/21)
Length of Visible Light 11h 52m
Length of Day
10h 57m
Waning Gibbous, 61% of the Moon is Illuminated
Feb 21
Waning Gibbous
Feb 22
Last Quarter
Mar 1
New
Mar 8
First Quarter
Mar 16
Full

Hourly Weather History & Observations

Time (EST) Temp. Windchill Dew Point Humidity Pressure Visibility Wind Dir Wind Speed Gust Speed Precip Events Conditions
12:54 AM 35.1 °F 25.9 °F 28.9 °F 78% 29.58 in 10.0 mi WSW 13.8 mph 21.9 mph N/A   Clear
1:54 AM 35.1 °F 26.9 °F 28.0 °F 76% 29.58 in 10.0 mi WSW 11.5 mph - N/A   Partly Cloudy
2:54 AM 34.0 °F 25.0 °F 28.0 °F 79% 29.61 in 10.0 mi SW 12.7 mph 19.6 mph N/A   Clear
5:54 AM 35.1 °F 23.3 °F 26.1 °F 70% 29.62 in 10.0 mi WSW 23.0 mph 31.1 mph N/A   Mostly Cloudy
6:47 AM 34.0 °F 24.6 °F 28.0 °F 79% 29.64 in 9.0 mi WSW 13.8 mph 24.2 mph 0.00 in   Overcast
6:54 AM 34.0 °F 24.2 °F 28.0 °F 79% 29.64 in 10.0 mi WSW 15.0 mph 24.2 mph 0.00 in   Overcast
7:54 AM 34.0 °F 22.4 °F 25.0 °F 70% 29.67 in 10.0 mi WSW 20.7 mph 43.7 mph N/A   Overcast
8:54 AM 33.1 °F 22.2 °F 25.0 °F 72% 29.70 in 10.0 mi West 17.3 mph 29.9 mph N/A   Overcast
9:54 AM 32.0 °F 20.5 °F 24.1 °F 73% 29.73 in 10.0 mi WSW 18.4 mph 32.2 mph N/A   Overcast
10:36 AM 32.0 °F 18.9 °F 23.0 °F 69% 29.72 in 10.0 mi WSW 24.2 mph 35.7 mph N/A   Overcast
10:54 AM 32.0 °F 18.1 °F 21.0 °F 64% 29.74 in 10.0 mi West 27.6 mph 39.1 mph N/A   Mostly Cloudy
11:54 AM 35.1 °F 23.3 °F 23.0 °F 61% 29.77 in 10.0 mi WSW 23.0 mph 36.8 mph N/A   Mostly Cloudy
12:54 PM 35.1 °F 23.5 °F 21.9 °F 59% 29.80 in 10.0 mi West 21.9 mph 36.8 mph N/A   Scattered Clouds
1:54 PM 36.0 °F 26.3 °F 21.9 °F 57% 29.81 in 10.0 mi WSW 16.1 mph 31.1 mph N/A   Clear
2:54 PM 37.9 °F 29.2 °F 21.0 °F 51% 29.81 in 10.0 mi WSW 15.0 mph 31.1 mph N/A   Clear
3:54 PM 39.0 °F 30.3 °F 19.0 °F 45% 29.83 in 10.0 mi WSW 16.1 mph 33.4 mph N/A   Clear
4:54 PM 39.9 °F 31.8 °F 19.9 °F 45% 29.84 in 10.0 mi WSW 15.0 mph 24.2 mph N/A   Clear
5:54 PM 39.0 °F 32.8 °F 23.0 °F 53% 29.86 in 10.0 mi WSW 9.2 mph - N/A   Clear
6:54 PM 37.0 °F 29.3 °F 25.0 °F 62% 29.88 in 10.0 mi SW 11.5 mph - N/A   Clear
7:54 PM 36.0 °F 32.1 °F 25.0 °F 64% 29.90 in 10.0 mi WSW 4.6 mph - N/A   Overcast
8:54 PM 36.0 °F - 25.0 °F 64% 29.89 in 10.0 mi Calm Calm - N/A   Overcast
9:54 PM 36.0 °F 32.1 °F 24.1 °F 62% 29.88 in 10.0 mi South 4.6 mph - N/A   Overcast
10:54 PM 37.0 °F 32.4 °F 23.0 °F 57% 29.88 in 10.0 mi SSW 5.8 mph - N/A   Overcast
11:54 PM 37.0 °F 32.4 °F 24.1 °F 59% 29.87 in 10.0 mi WSW 5.8 mph - N/A   Overcast